Wind_Speed
22 22 22 22 22 23 23 23 24 23 22 21 21 20 20 20 20 20 20 19 19 20 20 19 19 19 19 19 19 20 20 20 21 22 22 22 22 23 23 23 23 23 23 23
24 24 23 23 23 23 23 23 24 24 22 21 21 20 20 19 20 20 21 22 21 20 21 20 21 21 21 22 21 22 22 22 24 24 24 24 24 24 24 24 24 24 25 25
25 25 25 25 23 23 24 24 24 24 23 22 22 21 21 21 21 21 21 22 23 24 23 23 23 24 24 24 24 24 24 25 25 25 25 25 26 26 26 26 27 27 26 26
27 27 28 26 24 24 25 25 24 24 23 22 22 23 23 23 23 23 23 23 24 24 24 24 25 25 25 25 25 26 26 26 27 26 26 26 27 27 27 27 27 28 27 27
29 29 29 27 27 26 26 26 25 24 23 24 24 24 24 25 25 25 24 24 25 26 27 26 27 26 27 27 28 28 28 28 28 27 27 27 27 27 27 27 27 28 28 28
30 31 31 29 28 28 28 27 25 24 24 24 23 24 24 25 26 26 26 26 26 27 27 28 28 28 29 28 28 27 27 27 28 28 28 28 28 28 28 28 28 28 28 28
30 31 31 29 29 28 28 26 25 25 26 26 26 26 25 26 27 27 27 27 27 27 28 28 29 29 29 28 27 27 28 29 29 29 29 29 29 30 29 29 29 28 28 28
31 30 30 28 27 28 28 27 27 27 27 27 26 26 25 26 27 27 28 29 29 29 29 29 30 30 30 28 28 29 29 29 30 30 29 30 31 31 31 30 29 29 29 28
30 30 29 28 28 28 28 28 28 28 28 28 28 28 28 28 29 29 30 30 30 31 31 31 31 31 31 29 29 29 30 29 30 31 31 32 32 32 31 31 30 29 28 28
30 30 30 30 29 29 30 30 29 29 29 29 30 30 30 30 30 31 31 32 32 32 32 31 31 32 31 31 31 31 31 31 31 32 31 32 32 32 33 31 29 29 29 28
30 29 29 30 31 30 30 30 31 31 31 31 31 31 31 31 32 32 32 32 32 31 32 32 31 31 31 31 31 31 31 31 31 32 32 32 33 33 33 31 30 30 29 29
30 29 29 29 30 31 31 32 32 32 32 32 32 32 32 32 32 31 31 31 31 31 31 31 32 32 32 31 31 32 31 31 31 31 32 32 31 31 30 30 30 30 29 29
30 30 29 29 30 30 31 31 31 30 30 30 31 32 32 32 31 31 30 30 31 31 32 32 32 32 32 31 31 31 31 30 30 31 32 32 32 31 30 30 30 30 31 30
31 31 30 30 31 31 32 31 30 30 30 30 31 31 32 32 32 31 31 32 32 32 33 32 31 31 31 31 30 30 30 29 29 30 31 31 31 29 28 29 29 29 29 29
31 31 31 31 31 31 31 31 31 31 31 31 31 31 31 31 31 32 31 31 31 31 31 31 32 31 31 29 29 30 29 29 29 30 30 30 28 27 27 27 28 28 28 28
30 30 31 31 31 32 33 32 32 31 31 31 31 31 30 30 30 30 31 31 31 31 31 31 31 31 31 30 30 30 29 28 28 28 27 28 27 26 25 26 27 27 26 26
29 29 30 30 31 31 32 32 32 32 32 32 32 31 30 30 30 29 30 30 31 31 31 31 31 30 30 29 29 28 28 28 27 27 26 26 26 26 26 26 26 25 25 25
29 29 30 30 29 29 30 31 32 32 32 32 32 31 30 30 29 29 30 30 31 30 29 30 31 30 28 27 27 26 27 26 26 26 26 26 27 27 27 26 26 25 25 26
29 30 29 29 30 30 30 30 30 31 32 31 31 31 30 29 29 29 28 28 28 28 28 28 28 27 27 26 26 27 27 26 26 26 26 26 26 26 26 26 27 27 26 26
29 29 29 29 30 29 30 30 31 30 29 29 29 29 28 27 28 28 28 28 28 28 27 27 27 27 27 26 27 27 28 27 27 27 26 25 25 26 26 27 27 27 27 27
28 28 28 29 29 29 29 29 30 29 29 28 28 28 28 28 28 29 29 28 28 27 27 27 28 27 27 27 27 27 27 28 27 26 26 25 25 26 27 28 28 27 26 26
26 27 26 26 27 27 27 27 27 27 27 27 27 27 27 27 28 28 28 28 28 28 28 28 28 27 27 27 27 27 26 27 27 27 27 26 26 26 26 26 26 26 26 25
24 24 24 24 24 24 24 24 24 25 25 25 25 26 26 27 27 27 26 26 27 28 28 28 27 28 28 28 27 27 26 26 27 27 27 27 27 26 26 25 25 25 24 25
22 23 23 23 22 22 21 22 23 23 24 24 25 25 25 26 26 26 26 26 26 27 27 26 27 27 28 28 27 27 26 26 26 26 26 26 25 24 24 24 24 23 23 23
20 21 21 21 21 21 21 22 23 23 24 24 24 24 24 25 25 25 25 25 25 25 25 25 25 26 26 27 27 26 26 25 25 25 24 24 23 23 23 23 23 23 23 23
18 19 19 20 21 21 21 22 22 22 23 23 23 22 22 22 21 22 22 23 23 24 24 24 24 24 24 23 23 22 22 22 22 23 23 23 23 22 22 22 22 22 23 23
17 17 17 18 18 19 20 20 21 21 21 21 21 20 20 20 20 21 21 21 21 22 22 21 21 21 20 20 19 19 19 19 20 21 22 22 22 21 21 21 21 22 22 23
Wind_Direction
242 243 246 249 252 256 259 263 266 267 268 270 272 273 274 275 275 274 276 278 279 278 280 284 286 288 288 284 283 283 285 287 287 288 287 286 287 289 292 293 294 294 295 295
243 245 248 251 253 257 261 265 267 268 268 269 271 273 275 276 277 277 278 277 278 282 282 284 286 287 284 282 282 284 285 285 285 286 286 285 286 287 289 289 290 290 292 294
247 248 250 252 255 260 263 265 267 267 267 269 269 270 273 273 275 279 278 277 279 284 284 281 285 288 286 286 284 288 286 284 284 284 284 284 284 285 285 287 289 291 292 293
248 249 250 254 258 261 264 265 267 267 265 265 267 269 270 273 275 276 276 278 280 281 282 283 283 286 287 286 286 286 285 285 283 281 281 282 284 284 286 288 288 291 290 292
248 251 254 255 257 259 262 265 267 268 267 269 268 270 271 274 275 276 275 278 280 281 282 283 286 288 288 288 286 285 285 282 279 278 280 281 283 284 286 288 290 292 290 293
250 253 255 257 257 259 263 265 267 268 269 269 268 269 270 273 274 275 278 280 280 281 283 284 286 287 288 289 288 285 283 279 276 277 278 280 282 283 285 288 289 291 291 292
251 255 257 258 258 260 262 266 267 268 269 268 270 272 272 272 274 276 279 280 282 282 282 283 284 286 288 287 287 285 282 278 276 277 278 281 283 283 285 287 289 289 290 290
252 255 256 256 258 261 264 265 267 269 270 270 271 271 273 275 276 277 279 279 281 282 283 284 284 284 286 285 285 283 281 276 276 276 278 279 282 283 285 286 287 288 287 287
253 255 257 257 258 261 264 266 268 270 271 271 272 273 273 274 277 278 281 281 280 282 283 283 283 284 285 284 285 283 280 277 277 277 279 282 283 282 285 286 286 287 286 285
252 254 256 258 260 262 264 266 268 270 270 272 274 275 274 276 279 281 282 282 279 278 279 280 281 282 284 284 284 282 281 281 281 279 278 280 281 282 283 285 285 285 284 285
253 256 257 257 259 262 265 267 268 269 270 274 276 276 275 275 278 280 281 282 280 279 279 278 278 279 281 282 282 281 281 283 283 281 280 280 281 282 282 283 282 282 282 283
254 256 259 260 261 263 266 267 269 271 273 275 277 277 276 276 277 279 280 279 279 279 279 278 279 279 282 283 283 281 281 281 282 282 281 281 281 283 283 282 280 280 280 282
254 257 260 261 264 265 266 268 271 273 277 277 277 278 279 279 278 278 279 279 279 280 280 280 281 281 283 282 283 283 282 281 281 281 280 281 280 281 281 281 281 280 280 280
255 258 261 264 266 267 268 270 273 275 277 278 279 280 280 278 276 277 278 278 279 279 281 282 284 284 286 285 282 283 283 282 283 282 281 280 280 279 279 281 280 280 281 281
255 259 262 265 267 268 270 272 274 276 277 278 279 280 280 278 278 278 277 277 278 279 281 282 283 283 284 284 282 282 284 285 285 283 281 281 280 281 281 282 282 281 280 281
256 260 263 265 267 269 270 272 275 277 278 278 280 281 280 280 280 279 277 277 279 281 282 284 284 284 283 283 283 283 283 285 285 284 283 281 281 284 286 286 283 281 282 284
258 260 263 265 267 269 270 271 273 276 278 278 279 281 280 280 279 280 279 278 280 282 283 284 284 284 283 284 284 284 284 283 283 283 283 284 284 285 286 287 284 284 284 284
260 262 264 265 267 269 270 272 273 276 278 278 278 278 278 279 279 280 282 282 280 281 283 283 283 285 283 283 283 283 284 285 285 285 285 284 285 285 286 285 283 283 283 284
261 263 263 264 267 267 269 272 274 276 278 277 277 278 279 279 281 282 283 282 281 282 284 284 284 284 284 283 283 283 284 283 284 284 284 283 283 283 283 285 285 286 286 285
260 261 261 264 266 266 269 271 274 277 279 280 280 280 281 281 281 281 282 282 282 282 282 282 282 283 283 282 283 283 283 282 283 282 282 281 280 281 283 285 286 285 285 285
259 260 261 264 265 267 270 272 274 277 280 282 283 282 282 281 281 280 279 280 281 280 281 282 282 282 282 282 282 282 282 281 281 282 281 280 280 281 282 282 283 284 284 284
259 261 264 265 266 268 271 273 275 277 280 282 282 281 282 281 281 280 280 280 279 280 281 281 281 280 280 281 281 282 281 280 280 281 281 280 280 281 282 283 284 285 284 284
263 262 263 264 265 267 270 273 276 279 280 282 281 281 281 281 282 282 281 280 279 279 281 281 280 280 279 279 280 280 280 279 279 279 280 281 280 280 282 284 285 287 288 289
263 264 264 265 265 266 269 272 275 279 281 283 282 282 283 283 283 282 282 283 282 281 281 280 280 280 280 279 278 277 277 277 278 278 279 279 279 279 281 282 284 285 287 289
263 264 264 266 267 269 270 272 275 278 280 282 283 283 285 286 286 285 285 285 283 283 282 282 283 283 282 280 279 277 276 276 277 278 278 277 277 277 279 282 284 285 286 288
264 265 267 268 269 271 272 274 277 280 282 284 285 285 285 286 286 286 287 287 286 285 284 284 284 285 284 283 281 278 276 275 276 276 276 276 275 276 278 281 282 283 285 288
265 268 269 271 272 273 275 278 280 282 284 285 284 286 287 286 285 286 288 288 287 287 287 287 286 286 286 284 282 280 278 276 277 278 278 278 277 278 280 281 282 283 286 288
Height
5852 5854 5856 5857 5859 5860 5861 5862 5863 5864 5864 5866 5866 5866 5866 5866 5866 5866 5866 5865 5865 5864 5863 5862 5861 5860 5859 5859 5858 5857 5856 5855 5854 5853 5852 5850 5849 5847 5846 5844 5843 5842 5840 5838
5847 5849 5850 5852 5853 5854 5856 5856 5857 5858 5859 5860 5860 5860 5860 5861 5860 5860 5860 5859 5859 5858 5857 5856 5855 5854 5853 5852 5852 5851 5850 5849 5848 5847 5846 5845 5843 5841 5840 5838 5837 5835 5834 5832
5841 5843 5844 5846 5848 5849 5850 5851 5852 5852 5854 5854 5854 5855 5855 5855 5855 5855 5854 5853 5853 5852 5851 5850 5849 5848 5847 5846 5845 5844 5843 5843 5842 5840 5839 5838 5836 5835 5833 5832 5830 5828 5827 5825
5835 5838 5839 5843 5843 5844 5844 5845 5846 5846 5847 5848 5848 5849 5849 5849 5849 5848 5848 5848 5847 5846 5845 5844 5843 5842 5841 5839 5838 5837 5837 5836 5835 5833 5832 5831 5830 5828 5826 5825 5823 5822 5820 5818
5829 5830 5832 5835 5836 5837 5838 5839 5840 5840 5841 5841 5842 5842 5843 5843 5842 5842 5841 5841 5840 5839 5838 5837 5836 5835 5833 5832 5831 5830 5828 5827 5826 5825 5824 5823 5822 5820 5819 5817 5816 5814 5812 5810
5822 5823 5825 5829 5830 5830 5833 5833 5834 5834 5835 5835 5835 5836 5837 5836 5836 5835 5834 5834 5833 5832 5831 5830 5829 5827 5826 5824 5823 5821 5820 5818 5817 5817 5816 5815 5814 5812 5811 5809 5808 5806 5804 5802
5815 5816 5818 5820 5822 5824 5826 5828 5827 5827 5828 5828 5828 5829 5829 5829 5829 5828 5827 5827 5825 5824 5823 5822 5821 5820 5818 5816 5815 5813 5811 5810 5809 5808 5808 5806 5805 5804 5802 5801 5799 5798 5796 5794
5808 5809 5813 5813 5815 5817 5818 5819 5819 5820 5820 5820 5821 5821 5821 5821 5821 5820 5819 5819 5817 5816 5815 5814 5813 5811 5810 5808 5806 5804 5802 5801 5800 5799 5798 5797 5796 5795 5793 5792 5791 5789 5788 5786
5802 5805 5805 5806 5808 5809 5810 5811 5812 5812 5813 5813 5813 5813 5813 5813 5812 5812 5811 5810 5809 5808 5807 5806 5804 5803 5801 5799 5797 5795 5793 5792 5791 5791 5790 5788 5787 5785 5784 5782 5782 5780 5779 5778
5794 5796 5797 5799 5800 5801 5802 5803 5803 5804 5804 5804 5805 5804 5804 5803 5803 5802 5801 5801 5800 5799 5798 5797 5795 5793 5792 5790 5788 5786 5785 5783 5782 5781 5780 5779 5777 5776 5774 5773 5773 5771 5770 5769
5786 5788 5789 5791 5792 5793 5794 5795 5796 5796 5796 5796 5796 5795 5795 5794 5794 5793 5792 5791 5790 5789 5788 5787 5786 5784 5782 5781 5779 5777 5775 5774 5773 5771 5770 5769 5768 5767 5765 5764 5763 5762 5761 5760
5779 5781 5782 5784 5785 5786 5786 5787 5787 5787 5787 5787 5787 5786 5786 5785 5784 5783 5783 5782 5781 5780 5778 5777 5776 5774 5773 5771 5769 5767 5766 5765 5763 5762 5761 5759 5758 5756 5754 5753 5753 5752 5751 5750
5772 5773 5775 5776 5777 5777 5778 5778 5778 5778 5778 5778 5777 5777 5776 5775 5774 5774 5773 5772 5771 5770 5768 5767 5765 5764 5763 5761 5759 5758 5757 5755 5753 5752 5751 5750 5748 5748 5746 5745 5744 5743 5742 5741
5763 5765 5767 5768 5768 5769 5769 5770 5770 5770 5770 5769 5768 5767 5766 5765 5764 5764 5763 5762 5761 5759 5758 5756 5755 5755 5753 5752 5750 5749 5748 5746 5744 5743 5742 5741 5739 5738 5737 5736 5735 5733 5732 5731
5755 5757 5758 5759 5760 5760 5760 5761 5761 5761 5761 5760 5759 5758 5757 5756 5755 5754 5753 5752 5751 5750 5749 5747 5746 5745 5744 5743 5741 5740 5739 5738 5736 5735 5733 5732 5731 5729 5728 5727 5726 5725 5723 5722
5747 5749 5750 5750 5751 5751 5752 5752 5752 5752 5752 5751 5750 5749 5747 5746 5746 5745 5744 5743 5742 5741 5740 5738 5737 5735 5734 5733 5732 5731 5730 5729 5727 5726 5725 5723 5722 5721 5719 5718 5717 5716 5715 5714
5740 5741 5741 5742 5742 5742 5743 5743 5743 5743 5742 5741 5741 5739 5738 5737 5736 5735 5734 5733 5732 5731 5730 5728 5727 5726 5725 5724 5723 5722 5721 5720 5719 5717 5716 5715 5714 5713 5711 5710 5709 5708 5707 5706
5731 5732 5733 5733 5733 5734 5734 5734 5734 5734 5733 5732 5731 5730 5729 5728 5727 5726 5725 5724 5723 5722 5721 5719 5718 5717 5716 5715 5714 5713 5712 5711 5710 5709 5708 5706 5706 5705 5704 5702 5701 5700 5699 5698
5723 5724 5724 5725 5725 5725 5725 5725 5725 5724 5723 5722 5721 5720 5719 5718 5718 5717 5716 5714 5713 5713 5711 5710 5708 5707 5707 5706 5705 5704 5704 5703 5702 5701 5700 5699 5698 5697 5696 5695 5693 5691 5691 5690
5714 5715 5716 5716 5716 5716 5716 5716 5716 5715 5714 5713 5712 5711 5710 5709 5708 5707 5707 5706 5704 5703 5702 5701 5700 5699 5698 5697 5696 5695 5695 5694 5694 5693 5692 5690 5690 5689 5688 5687 5686 5684 5683 5682
5706 5707 5707 5708 5708 5708 5708 5707 5707 5706 5705 5704 5703 5702 5701 5700 5699 5698 5698 5697 5696 5694 5693 5692 5691 5690 5689 5688 5687 5686 5686 5685 5685 5684 5683 5683 5682 5681 5680 5679 5678 5677 5675 5674
5698 5698 5699 5699 5700 5700 5700 5699 5699 5698 5697 5695 5694 5693 5692 5691 5690 5689 5688 5687 5686 5685 5684 5682 5681 5680 5679 5679 5678 5677 5676 5676 5676 5675 5675 5674 5673 5672 5672 5671 5670 5668 5667 5666
5690 5691 5691 5692 5692 5692 5691 5691 5691 5690 5689 5687 5686 5685 5683 5682 5681 5680 5679 5677 5676 5675 5674 5673 5672 5671 5670 5669 5668 5668 5667 5667 5666 5666 5666 5665 5665 5664 5663 5663 5662 5661 5660 5658
5683 5684 5684 5684 5684 5684 5684 5684 5683 5682 5681 5679 5678 5676 5675 5673 5672 5670 5669 5668 5667 5665 5664 5663 5662 5661 5660 5659 5658 5658 5658 5658 5657 5657 5657 5656 5656 5656 5655 5655 5654 5653 5652 5651
5677 5677 5677 5677 5678 5678 5678 5677 5676 5675 5674 5672 5670 5668 5666 5665 5663 5661 5660 5659 5657 5656 5654 5653 5652 5651 5650 5649 5648 5648 5648 5648 5649 5648 5648 5648 5648 5648 5648 5647 5646 5646 5645 5643
5671 5671 5671 5670 5670 5671 5670 5669 5669 5667 5666 5664 5662 5660 5658 5657 5655 5654 5653 5651 5649 5648 5646 5645 5643 5642 5641 5640 5639 5639 5639 5640 5640 5640 5640 5640 5640 5640 5639 5639 5639 5638 5637 5636
5665 5665 5664 5664 5664 5663 5663 5662 5661 5660 5658 5657 5655 5653 5652 5650 5649 5647 5646 5644 5642 5640 5638 5637 5636 5634 5633 5632 5632 5632 5632 5632 5633 5633 5633 5633 5632 5632 5632 5631 5631 5630 5629 5628